Lapse_Rate
8.3 8.7 8.7 9.6 9.3 9.2 8.6 9.1 9.1 9.5 9.6 9.2 8.9 9.7 9.8 9.7 9.8 9.7 9.6 6.0 6.0 5.8 6.2 6.6 6.8 6.5 6.3 6.3 6.3 6.8 6.1 6.1 6.0 5.8 6.1 6.2 6.6 6.4 6.2 6.2 6.1 6.5 6.5
7.6 9.6 8.4 8.4 9.0 9.1 8.4 9.3 8.1 9.4 7.9 8.1 9.0 9.7 9.7 9.8 9.7 9.7 9.7 8.0 6.1 6.0 6.0 6.5 6.8 6.6 6.6 6.4 6.6 6.2 7.0 6.7 6.2 5.8 5.9 6.3 6.1 5.9 6.1 5.9 6.0 6.0 6.1
9.5 8.9 9.2 9.2 9.7 8.2 8.8 8.9 8.3 8.7 6.2 9.8 9.7 9.8 9.8 9.7 9.8 9.7 9.7 9.8 7.3 5.8 6.2 6.4 6.2 6.6 6.4 6.7 6.3 6.4 5.9 6.1 6.5 6.4 6.2 5.6 5.7 5.7 6.1 6.1 5.8 5.8 5.8
9.2 9.3 9.3 8.4 8.6 9.6 8.9 9.3 8.7 7.0 9.7 9.6 9.6 9.7 9.8 9.8 9.7 9.7 9.7 9.7 9.7 9.5 6.1 6.4 6.7 6.6 6.5 6.6 6.7 6.3 6.3 6.2 6.1 5.8 5.8 6.0 5.8 5.7 5.5 5.5 5.6 5.5 5.7
9.1 9.5 9.3 8.8 9.2 8.8 9.3 9.3 9.6 7.3 9.4 9.5 9.6 9.7 9.8 9.7 9.8 9.8 9.8 9.7 9.6 9.6 9.5 6.8 6.7 6.3 6.7 6.9 6.8 6.7 6.3 6.0 6.2 6.1 6.0 5.7 5.7 5.9 5.7 5.6 5.6 5.4 5.4
9.1 9.3 9.3 9.4 8.8 9.4 9.5 7.1 8.7 9.6 9.5 9.5 9.7 9.6 9.6 9.8 9.8 9.8 9.8 9.8 9.7 9.7 9.5 9.6 8.6 7.6 6.7 6.9 6.9 6.7 6.6 6.3 6.2 6.1 6.0 5.9 5.8 5.5 5.4 5.3 5.5 5.5 5.4
9.3 8.4 9.3 8.8 9.3 9.0 8.3 8.9 9.5 9.3 9.4 9.5 9.2 9.2 9.3 9.4 9.6 9.7 9.9 10.0 9.8 9.8 9.7 9.6 9.6 9.3 7.8 6.4 5.2 5.1 5.4 5.7 6.4 6.1 5.9 6.0 5.9 5.6 5.3 5.0 5.0 5.1 5.0
9.3 8.4 9.2 9.5 9.4 9.5 9.4 9.4 9.4 9.3 9.4 9.3 8.9 8.8 8.2 8.5 8.5 9.7 9.8 9.8 9.7 9.8 9.8 9.7 9.6 7.9 8.9 7.8 6.1 4.8 4.3 4.6 5.1 5.5 6.1 6.1 6.0 5.8 5.7 5.3 4.8 4.6 4.7
9.5 9.3 8.9 8.6 9.2 8.8 9.5 9.0 9.4 9.2 9.0 9.3 8.7 8.8 8.1 7.8 8.0 8.8 9.2 9.6 9.6 9.8 9.8 9.7 9.7 9.5 8.0 9.3 7.6 6.0 3.6 4.1 4.5 4.8 4.8 4.9 4.8 5.0 5.2 5.5 5.5 5.2 4.8
9.4 9.4 9.3 9.6 9.2 9.2 9.1 9.4 9.7 8.6 8.6 8.9 9.3 9.4 8.3 8.4 8.2 7.9 8.3 9.3 9.6 9.6 9.5 9.8 9.8 9.3 9.6 9.7 6.8 4.7 3.7 3.4 3.6 4.0 4.2 4.3 4.3 4.4 4.7 4.9 5.1 5.3 5.4
9.6 9.6 9.6 9.6 9.6 9.5 9.3 9.2 9.5 8.4 9.3 9.1 9.2 9.1 9.0 9.1 8.7 8.5 8.0 8.5 9.3 9.5 9.7 9.8 9.8 9.8 9.6 9.6 9.7 5.8 4.8 4.0 3.6 3.7 3.7 3.8 4.0 4.2 4.5 4.7 4.8 4.9 5.0
9.6 9.6 9.6 9.6 9.6 9.5 9.6 9.6 9.6 9.5 8.8 8.7 9.2 9.0 9.1 8.8 8.7 8.6 8.4 8.4 8.6 9.0 9.6 9.7 9.8 9.8 9.7 9.7 8.5 7.1 6.4 5.4 4.7 4.3 3.8 3.5 3.6 3.7 3.9 4.3 4.5 4.7 4.9
9.6 8.5 9.5 9.4 9.6 9.1 9.7 9.6 9.5 9.4 9.5 9.3 8.8 9.2 9.0 9.2 9.3 9.1 8.8 8.6 8.5 8.8 9.0 9.5 9.3 9.4 9.7 9.7 9.3 7.5 7.5 6.9 5.8 4.9 4.2 3.8 3.7 3.7 3.9 3.9 3.9 3.8 4.0
9.6 8.4 8.5 9.5 9.6 9.6 9.7 9.6 9.5 9.6 9.5 9.5 9.4 9.3 9.4 9.0 9.3 9.3 9.0 7.5 6.6 7.1 7.7 7.6 7.5 8.0 9.6 9.7 9.5 8.0 9.0 8.5 7.0 5.9 5.7 4.7 4.0 3.8 3.8 3.8 3.8 3.5 3.4
9.6 9.3 9.5 9.5 9.5 9.7 9.6 9.4 9.0 9.4 9.0 9.5 9.4 9.4 9.4 9.6 9.6 9.6 9.4 8.6 7.3 6.8 7.4 8.7 8.9 7.7 8.6 9.5 8.9 9.3 9.6 9.5 7.2 6.3 6.2 6.1 5.3 4.7 4.3 4.3 4.0 3.7 3.4
8.9 8.5 9.2 9.2 9.1 8.9 8.6 8.3 9.4 9.3 9.3 9.5 9.6 9.3 9.3 9.5 9.5 9.6 7.9 8.9 9.2 8.7 8.1 9.0 9.2 9.5 9.2 9.6 9.4 9.2 9.2 9.2 8.9 8.2 7.5 6.9 6.4 5.8 5.1 4.6 4.3 3.8 3.4
8.9 9.1 7.6 7.6 7.2 8.2 6.6 5.4 9.0 9.0 9.1 9.2 9.2 9.0 9.2 9.4 9.5 9.5 9.5 9.3 9.2 9.1 8.4 9.0 9.4 9.4 8.9 9.1 9.3 9.0 9.5 9.4 9.6 9.2 8.2 6.9 6.3 6.0 5.6 5.1 4.7 4.2 3.6
8.9 7.7 6.3 5.3 7.2 6.0 5.4 6.8 6.2 9.0 9.2 9.2 9.3 9.2 9.2 9.5 8.6 8.3 9.3 8.5 9.0 8.8 8.8 7.8 8.5 9.2 8.8 9.0 9.1 8.9 9.5 9.6 9.6 9.5 7.9 7.1 6.1 6.1 5.6 5.3 5.1 4.8 4.6
8.1 7.0 6.0 4.8 6.3 6.3 6.5 6.0 5.6 6.0 9.2 9.3 9.3 9.3 9.3 9.2 8.7 9.1 8.7 8.6 9.1 8.8 9.1 9.0 8.7 7.9 8.1 6.8 8.0 9.1 7.1 7.5 8.2 9.1 8.7 6.6 5.5 5.2 5.1 5.2 5.0 4.6 4.4
7.9 5.1 5.5 4.2 5.3 6.1 5.7 6.5 6.5 6.8 8.9 9.3 9.4 9.4 9.4 9.1 8.7 8.5 8.5 8.3 8.7 8.8 8.8 8.9 8.9 8.8 9.0 8.4 8.9 9.1 8.4 6.6 7.4 9.6 9.6 9.4 8.9 6.9 4.7 4.2 4.0 3.8 4.0
7.3 5.3 5.0 4.1 4.0 7.2 7.7 6.5 7.2 7.3 7.4 8.9 9.4 9.4 9.5 9.0 7.7 7.3 8.6 7.5 7.6 8.4 9.2 9.0 9.0 9.1 9.2 9.0 8.3 9.2 8.7 9.1 7.6 9.7 9.8 10.3 10.1 10.1 9.9 8.7 5.9 4.9 4.2
8.3 7.4 5.8 3.9 3.9 6.7 6.6 4.3 6.3 7.3 9.2 8.9 9.2 9.3 8.8 7.1 7.4 4.8 4.4 3.8 4.5 6.7 7.1 8.0 9.0 8.9 7.9 8.5 9.1 9.0 8.9 9.0 8.4 9.9 9.3 9.7 9.9 9.9 10.3 10.1 9.7 9.0 7.4
8.0 7.0 5.4 4.7 5.5 7.8 2.9 2.0 3.0 8.6 9.4 9.3 8.7 8.4 8.7 9.7 7.4 7.7 4.5 2.8 2.8 3.6 4.1 7.1 7.7 7.8 7.7 7.7 8.2 8.2 8.4 8.4 8.7 9.4 9.4 9.6 9.9 10.0 10.3 9.9 8.9 7.1 6.8
7.6 7.3 6.4 6.9 8.6 9.1 3.2 1.5 3.3 8.4 9.0 8.6 9.2 9.0 8.5 8.9 8.6 5.9 6.6 5.7 6.0 8.0 7.7 7.7 7.2 7.8 8.8 9.2 7.7 7.9 7.8 7.9 8.8 9.4 8.9 8.9 9.5 9.8 9.6 10.4 9.3 7.3 6.8
7.5 7.8 8.1 7.0 7.5 8.7 3.0 1.5 4.0 8.7 7.8 8.7 9.0 9.1 9.1 6.7 5.4 2.2 5.2 5.2 5.6 7.1 8.9 6.9 6.1 6.4 6.3 5.6 5.6 8.4 9.1 9.0 8.7 8.9 9.3 9.5 9.4 9.3 10.1 9.7 9.3 8.8 6.2
7.8 9.0 8.9 7.6 7.3 8.2 1.8 1.7 3.9 5.8 6.9 7.7 7.0 7.4 2.5 4.5 0.3 1.2 4.9 5.6 7.5 8.8 9.3 9.4 8.9 7.4 5.1 6.4 3.8 5.8 8.3 8.7 8.8 8.6 9.3 8.6 9.6 9.6 8.6 8.9 9.8 6.9 4.3
Wind_Speed
2 4 5 7 6 5 7 6 2 4 5 7 9 6 9 10 7 7 3 13 10 5 9 12 11 14 14 14 14 14 14 13 12 12 11 11 11 11 11 10 9 9 8
6 5 3 6 6 2 9 7 7 6 4 3 5 6 8 7 5 5 9 8 14 12 9 12 12 13 15 14 14 15 16 15 14 13 13 13 12 12 13 12 11 11 11
6 6 6 4 6 4 4 8 5 3 6 5 4 5 8 6 5 6 7 7 13 15 13 13 14 12 14 15 16 16 15 16 17 15 15 14 15 14 14 14 14 14 13
9 8 6 6 2 4 2 3 4 6 6 6 5 4 5 5 7 4 4 5 6 1 15 13 11 14 13 13 16 16 17 16 15 15 15 16 16 16 15 16 16 16 15
10 9 8 4 6 5 2 5 5 5 4 6 6 4 3 3 4 8 4 3 8 5 6 14 13 12 12 13 14 13 15 16 17 16 17 17 18 17 17 17 17 17 16
11 9 8 2 9 5 5 4 2 5 6 6 6 5 2 3 4 3 3 5 5 4 8 7 8 13 11 6 3 8 12 14 16 16 17 19 19 19 18 18 18 18 18
12 6 9 7 6 8 2 5 5 6 4 1 5 4 4 6 4 2 6 5 3 5 5 5 8 6 9 11 12 11 8 3 10 15 15 17 19 19 19 20 20 19 19
12 11 7 6 3 5 0 2 3 5 4 4 5 4 3 5 1 6 4 3 5 5 6 6 6 7 6 10 11 11 10 8 7 5 4 6 13 16 18 19 21 21 21
6 7 4 6 3 2 3 3 4 1 6 1 2 4 3 3 4 6 6 5 2 3 4 4 5 4 4 5 9 8 10 8 7 6 6 6 7 6 6 12 18 20 21
12 11 9 4 1 5 3 3 3 4 3 3 3 5 2 4 5 1 4 7 4 4 4 6 2 5 2 3 8 8 6 7 6 6 5 4 3 5 7 8 8 13 19
7 8 6 5 3 4 4 4 1 3 2 5 2 2 5 3 5 4 6 1 2 4 4 3 3 7 2 4 4 8 2 4 5 6 8 9 9 9 8 9 10 11 11
8 7 9 7 5 4 3 4 3 4 5 4 6 2 3 3 1 2 4 5 5 4 3 1 4 2 7 6 3 7 1 4 6 6 7 8 9 9 9 10 12 13 14
8 10 8 7 7 6 4 3 3 5 4 4 3 6 2 3 3 3 5 6 7 7 1 3 2 6 4 6 3 1 6 8 10 9 7 8 10 10 11 10 11 13 15
7 11 11 10 8 8 7 5 5 6 6 5 5 5 7 3 7 3 4 3 3 6 7 3 3 4 6 7 6 7 11 11 17 12 9 12 13 12 12 13 14 13 15
7 9 12 11 10 8 7 6 6 7 5 5 6 6 7 6 5 5 4 3 1 4 6 8 4 8 2 9 4 7 12 11 13 11 15 18 17 16 16 16 16 17 17
10 13 12 13 11 11 11 8 7 7 6 6 7 6 5 6 6 6 4 7 6 6 8 7 8 7 8 11 11 8 14 15 20 26 27 24 23 20 19 19 19 20 20
12 10 13 12 12 11 11 10 8 7 7 8 8 7 7 6 7 7 6 7 6 6 9 8 9 9 8 8 11 13 16 14 18 23 25 23 25 26 25 25 24 24 24
13 14 14 14 13 12 9 11 12 10 10 9 9 9 10 9 8 8 6 7 6 5 7 9 9 9 9 10 8 9 10 18 17 19 14 22 28 29 28 29 29 28 29
15 16 16 15 14 14 13 13 11 7 11 10 10 10 9 9 7 8 7 7 7 6 6 9 9 5 6 4 12 9 5 8 15 25 29 30 29 30 32 33 33 33 32
17 18 17 15 14 14 13 12 12 11 11 10 10 10 9 8 8 8 9 7 9 9 10 8 9 9 9 9 11 8 8 5 10 16 18 21 24 28 35 34 34 33 32
17 17 17 15 14 14 12 11 11 11 11 11 10 9 10 11 11 8 6 7 8 9 10 10 9 10 10 9 10 10 11 10 8 9 10 10 11 11 15 18 26 30 33
15 15 13 11 14 12 10 10 11 11 11 9 10 11 10 7 9 9 8 7 5 9 11 9 10 11 11 10 10 9 10 12 12 11 11 11 11 12 12 20 24 22 17
16 16 16 15 13 12 8 12 12 11 11 10 10 10 11 10 8 9 9 9 8 13 16 10 10 11 10 10 11 11 11 11 12 12 12 13 11 12 10 22 22 16 24
16 14 14 13 10 9 9 9 10 12 10 10 11 11 10 10 9 6 7 8 10 11 11 10 11 10 10 9 9 10 11 12 13 12 10 13 11 12 12 13 18 22 32
12 14 13 11 12 12 12 14 13 11 11 13 12 11 10 7 11 10 8 7 7 8 11 16 9 7 11 17 16 9 10 11 12 10 10 12 12 12 11 12 15 22 28
10 10 13 8 10 9 12 15 15 8 11 9 10 7 6 11 10 11 8 7 9 11 11 10 7 9 16 16 24 15 12 11 11 12 11 9 12 13 13 13 12 13 15
Wind_Direction
72 332 352 307 326 341 356 303 335 338 320 302 3 339 333 310 321 283 329 135 137 167 206 209 207 198 197 204 206 206 206 210 204 205 214 212 212 222 218 228 239 253 255
117 286 240 273 294 343 356 330 28 323 291 262 258 6 311 307 340 308 292 163 155 171 189 207 215 210 206 206 212 214 215 215 215 216 216 220 227 223 224 230 236 244 253
272 277 283 298 277 42 252 252 300 244 257 292 332 320 292 355 344 341 292 295 159 175 182 191 199 215 217 218 212 217 221 225 222 223 226 228 227 222 224 233 236 239 247
233 254 252 246 96 275 322 313 310 324 331 341 309 307 324 311 32 243 226 342 358 228 189 176 187 208 219 228 231 226 225 223 226 227 232 233 231 226 228 234 236 241 243
231 250 271 315 341 298 288 266 290 260 338 310 312 315 332 2 316 78 35 343 52 316 23 168 179 187 204 219 228 232 229 230 232 229 232 231 234 235 231 232 236 243 245
257 235 261 293 288 247 274 231 300 337 312 263 322 322 15 12 342 44 130 90 69 333 36 6 223 181 180 193 232 243 241 241 238 240 237 235 233 236 238 237 239 242 245
231 220 254 207 233 260 49 345 312 282 312 22 288 251 158 190 147 321 55 19 16 51 29 27 342 16 140 112 75 62 52 357 255 247 251 250 243 239 236 238 240 245 246
225 196 244 283 183 314 204 7 309 314 293 87 303 289 246 164 241 98 61 66 360 24 54 64 58 10 25 80 89 73 54 44 35 17 319 279 261 257 249 243 243 243 246
235 216 227 258 114 311 271 161 213 321 299 84 68 317 292 46 214 130 170 103 308 61 1 123 71 70 4 74 166 79 54 43 35 36 29 14 0 342 318 267 254 248 245
205 189 207 192 181 302 65 187 208 290 236 300 152 157 357 5 340 111 192 147 197 189 89 318 46 139 344 17 90 78 45 34 29 12 358 349 333 317 310 311 298 270 256
215 204 182 175 205 249 153 316 249 230 241 298 267 289 141 225 153 299 325 40 285 169 167 258 25 308 189 283 308 121 82 350 356 356 350 340 332 322 309 297 289 288 283
181 194 188 178 199 235 188 227 237 239 275 327 312 328 279 298 267 295 300 309 316 274 222 231 259 294 323 303 233 126 150 289 294 311 320 322 323 323 320 315 303 296 287
195 161 191 181 194 202 213 213 192 278 227 266 229 295 254 295 311 295 293 291 316 329 278 230 292 194 250 284 299 278 203 238 246 259 280 293 300 305 310 312 309 305 300
194 144 180 190 214 193 202 183 208 226 208 222 241 269 302 240 242 263 278 350 353 314 317 181 229 218 230 228 287 269 282 254 227 235 263 283 278 280 284 296 301 299 299
192 174 179 192 192 198 201 197 226 195 254 236 253 232 264 275 269 283 299 3 188 260 277 302 328 210 192 251 170 293 297 291 218 240 254 271 264 266 270 278 284 287 287
218 170 181 194 192 189 180 198 219 208 222 252 253 252 261 285 284 262 232 254 273 298 305 300 303 323 350 317 291 256 269 268 257 255 257 252 250 257 262 267 269 274 276
184 200 184 192 188 187 186 173 240 267 213 210 244 276 262 268 271 290 315 328 323 309 319 324 327 321 329 298 281 274 274 276 277 266 248 241 241 245 248 258 263 265 268
192 198 196 199 191 184 174 181 197 224 218 230 235 234 243 243 215 231 256 256 269 294 276 295 287 289 281 289 264 264 259 274 283 281 242 226 230 236 243 251 256 257 259
192 202 198 204 192 197 188 188 184 198 234 235 230 234 234 244 256 274 294 298 292 285 303 296 302 312 311 308 288 279 263 259 272 276 263 237 230 233 243 247 249 250 249
199 202 197 199 197 201 193 196 186 202 229 231 228 236 236 247 249 246 254 263 261 262 272 275 272 272 263 270 258 288 284 270 268 275 304 297 269 241 239 243 242 242 244
207 202 197 189 198 203 205 204 198 199 219 230 235 227 231 238 250 262 270 273 304 292 292 299 297 293 286 305 318 309 299 304 294 284 289 288 299 300 294 266 249 240 241
214 210 200 201 197 217 207 182 192 212 221 222 225 222 234 214 227 220 232 241 260 279 276 279 286 289 295 298 296 295 289 290 299 290 295 298 300 295 289 277 269 273 281
213 206 200 201 222 230 238 195 198 219 221 219 220 227 238 243 210 246 227 221 230 245 236 250 265 273 296 294 294 291 288 299 290 296 299 288 283 277 282 279 276 292 298
209 214 206 209 226 241 226 187 179 221 230 239 242 229 228 248 244 222 242 248 244 253 239 238 239 250 266 296 302 291 287 278 273 263 263 286 296 281 287 291 299 311 298
205 208 217 214 209 227 186 174 182 216 225 230 235 242 238 238 248 219 215 231 249 258 264 246 244 273 261 259 254 276 277 286 291 295 296 278 283 287 293 304 301 290 303
214 215 218 206 217 232 174 183 194 208 228 223 210 226 244 249 175 185 217 234 258 269 275 286 245 251 248 248 240 237 252 277 296 292 285 302 308 305 303 292 294 289 281